Flag for U.S.A. Weather past 2 weeks in Portsmouth, Virginia, U.S.A.

Now
76 °F

Low clouds.


Feels Like: 76 °F
Forecast: 74 / 90 °F
Wind: 5 mph from West

Location: Norfolk Naval Air Station

Current Time: Jul 23, 2014 at 6:43:57 AM

Latest Report: Jul 23, 2014 at 6:04 AM


Visibility: 10 mi

Pressure: 30.04 "Hg

Humidity: 91%

Dew point: 73 °F

Location of PortsmouthLocation

Historic Weather in Portsmouth — Graph

°F

Portsmouth temperature yesterday

Maximum temperature yesterday: 83 °F (at 12:59 PM)
Minimum temperature yesterday: 74 °F (at 12:59 AM)
Average temperature yesterday: 77 °F

Past Weeks' High & Low Weather Summary

 TemperatureHumidityPressure
High94 °F (Jul 8, 2:59 PM)93% (Jul 9, 8:59 PM)30.24 "Hg (Jul 9, 8:59 PM)
Low69 °F (Jul 18, 1:59 AM)38% (Jul 13, 4:59 PM)29.75 "Hg (Jul 15, 5:59 PM)
Average79 °F73%30.06 "Hg
* Reported Jul 8 4:59 AM — Jul 23 4:59 AM, Portsmouth, Weather by CustomWeather, © 2014

Note: Actual official high and low records may vary slightly from our data, if they occured in-between our weather recording intervals... More about our weather records

Advertising

Portsmouth weather history for previous 24 hours

 ConditionsComfort  
Time TempWeatherWind HumidityBarometerVisibility
4:59 AM
Jul 23
76 °FPassing clouds.No wind91%30.05 "Hg10 mi
3:59 AM76 °FPartly cloudy.3 mph91%30.05 "Hg10 mi
1:59 AM77 °FPassing clouds.3 mph88%30.07 "Hg10 mi
12:59 AM76 °FPassing clouds.No wind88%30.09 "Hg10 mi
11:59 PM
Jul 22
77 °FPassing clouds.No wind88%30.10 "Hg10 mi
10:59 PM77 °FPassing clouds.No wind85%30.11 "Hg10 mi
9:59 PM77 °FPartly cloudy.5 mph88%30.11 "Hg10 mi
8:59 PM78 °FBroken clouds.6 mph82%30.11 "Hg10 mi
7:59 PM80 °FBroken clouds.9 mph79%30.11 "Hg10 mi
12:59 PM83 °FBroken clouds.14 mph70%30.17 "Hg10 mi
11:59 AM82 °FBroken clouds.12 mph72%30.19 "Hg10 mi
10:59 AM80 °FPartly sunny.12 mph74%30.19 "Hg10 mi
9:59 AM80 °FBroken clouds.12 mph76%30.19 "Hg10 mi
8:59 AM78 °FBroken clouds.10 mph82%30.19 "Hg10 mi
7:59 AM77 °FBroken clouds.10 mph85%30.19 "Hg10 mi
6:59 AM76 °FPassing clouds.6 mph88%30.17 "Hg10 mi
Weather by CustomWeather, © 2014

See weather overviewHow to use our weather pages